Location: Miramichi City (Newcastle)
(46.9830°N, 65.5670°W)
Time: 15:15:34
(UTC-03:00)

Iridium 12 - Visible Passes

Search period start: 02 July 2015 00:00
Search period end: 12 July 2015 00:00
Orbit: 776 x 779 km, 86.4° (Epoch: 02 July)

Date Brightness Start Highest point End Pass type
(mag) Time Alt. Az. Time Alt. Az. Time Alt. Az.
02 Jul 5.7 01:58:06 35° SSE 02:00:14 67° E 02:05:26 10° N visible
02 Jul 7.4 03:38:35 12° WSW 03:41:36 18° WNW 03:44:58 10° NNW visible
03 Jul 6.4 01:24:43 27° SE 01:26:49 38° E 01:31:39 10° NNE visible
03 Jul 6.7 03:05:11 20° WSW 03:07:41 29° WNW 03:12:12 10° NNW visible
04 Jul 7.2 00:51:19 17° ESE 00:53:30 23° E 00:57:33 10° NNE visible
04 Jul 6.0 02:31:48 32° SW 02:33:56 50° W 02:39:01 10° N visible
05 Jul 7.7 00:18:04 10° E 00:20:16 13° ENE 00:22:44 10° NE visible
05 Jul 5.5 01:58:24 40° S 02:00:19 87° W 02:05:35 10° N visible
05 Jul 7.7 03:39:38 10° W 03:42:00 13° WNW 03:44:08 10° NW visible
06 Jul 5.9 01:24:59 35° SE 01:26:50 54° E 01:31:56 10° NNE visible
06 Jul 7.2 03:05:27 16° WSW 03:08:00 22° WNW 03:11:54 10° NNW visible
07 Jul 6.7 00:51:34 24° ESE 00:53:27 31° E 00:58:02 10° NNE visible
07 Jul 6.5 02:32:02 26° WSW 02:34:08 36° WNW 02:38:56 10° NNW visible
08 Jul 7.4 00:18:09 15° ESE 00:20:10 18° ENE 00:23:44 10° NE visible
08 Jul 5.7 01:58:37 39° SSW 02:00:26 63° W 02:05:38 10° N visible
08 Jul 7.9 23:46:26 10° E 23:46:59 10° ENE 23:47:51 10° ENE visible
09 Jul 5.5 01:25:11 43° SSE 01:26:53 76° E 01:32:07 10° N visible
09 Jul 7.6 03:05:39 11° WSW 03:08:21 16° WNW 03:11:22 10° NNW visible
10 Jul 6.2 00:51:45 32° SE 00:53:26 43° E 00:58:23 10° NNE visible
10 Jul 7.0 02:32:13 20° WSW 02:34:24 26° WNW 02:38:44 10° NNW visible
11 Jul 7.0 00:18:19 21° ESE 00:20:06 25° E 00:24:21 10° NNE visible
11 Jul 6.2 01:58:47 32° SW 02:00:36 45° W 02:05:37 10° N visible
11 Jul 7.5 23:44:52 12° E 23:46:51 15° ENE 23:49:46 10° NE visible
